Wind_Speed
12 8 9 8 9 11 11 15 12 7 9 8 8 9 12 10 8 13 9 10 9 9 12 15 13 14 15 14 12 14 13 13 15 16 16 16 16 16 16 17 16 14 14 14 16 17 17 16 15 14 14 14 12 12 15 14 14 15 16 14 11 11 13 13 13 12 9 8 8 9 9 9 8 8 8 8 7 6 6 6 5 4 3 3 2 1
10 8 9 11 12 10 10 14 10 5 7 8 8 6 9 9 8 13 10 10 8 7 8 12 15 14 12 14 12 13 12 12 15 15 16 17 16 16 16 17 16 13 12 15 16 17 17 16 14 14 14 15 14 14 16 16 15 14 15 15 15 16 17 17 16 13 10 9 9 9 9 9 8 8 7 7 7 6 5 6 6 5 4 3 2 0
8 8 11 12 9 5 3 6 6 6 8 9 8 7 7 8 8 10 8 7 7 6 8 11 13 12 13 14 10 11 11 12 16 17 17 18 17 17 17 16 16 14 13 16 18 17 18 16 15 15 13 14 14 15 17 18 17 15 15 17 18 19 20 19 17 13 10 10 10 10 9 9 9 9 9 8 8 6 5 5 5 6 6 6 4 2
7 9 14 12 6 4 5 5 6 7 8 9 9 8 8 8 10 8 7 8 9 7 9 11 9 10 11 10 8 11 12 12 15 18 18 19 17 16 16 16 16 16 16 17 18 18 18 17 16 15 13 13 15 18 19 18 17 16 17 19 20 21 21 18 16 13 12 12 13 12 12 11 11 11 11 9 9 8 7 7 6 6 6 7 6 4
8 6 10 10 7 7 10 8 9 8 8 10 11 10 9 10 11 6 4 8 9 8 10 9 7 9 9 9 9 10 12 12 14 17 17 17 16 14 15 16 17 17 17 18 18 18 18 16 15 13 13 13 16 19 18 18 17 16 17 19 20 21 20 17 17 15 13 14 14 14 14 13 12 11 10 9 9 8 7 7 6 6 7 7 6 5
10 4 6 6 6 9 11 9 11 10 8 10 12 14 14 11 11 6 5 7 6 8 11 10 9 7 9 12 12 10 10 12 13 15 15 16 16 15 15 16 16 16 17 16 17 17 16 14 12 10 10 11 14 17 16 16 17 16 17 18 19 21 18 18 19 16 14 14 13 14 14 12 11 10 9 8 8 7 7 7 6 6 7 6 6 5
7 6 7 8 8 11 12 10 12 11 9 8 10 16 17 13 10 8 8 9 7 5 8 12 10 6 8 12 13 12 12 13 13 13 13 14 15 15 15 15 15 15 14 13 15 16 15 12 10 10 9 9 14 17 16 17 17 15 15 17 19 19 17 17 18 16 15 14 13 14 12 11 10 9 9 8 8 7 7 7 6 6 7 7 6 5
7 6 6 9 10 11 10 9 11 13 11 8 6 14 16 13 9 9 9 9 7 4 4 10 11 7 5 9 13 15 14 15 14 11 12 14 13 13 14 15 15 13 12 13 12 13 15 14 13 15 16 13 13 17 15 17 19 17 15 16 16 16 15 15 16 15 13 12 13 13 11 10 9 9 10 9 9 8 8 8 7 6 7 7 6 5
9 11 8 9 10 8 9 11 11 14 12 6 4 10 13 14 12 10 11 9 6 5 5 9 11 8 4 7 12 15 15 16 14 11 11 11 11 13 14 14 13 12 12 13 10 11 15 19 18 16 16 17 16 16 16 19 19 18 16 16 17 15 14 15 15 13 11 10 12 11 10 10 10 10 10 10 9 9 9 9 8 7 7 8 7 6
6 11 12 11 11 8 11 11 10 14 12 3 5 10 10 11 12 9 10 8 6 7 8 9 11 8 5 7 9 10 12 13 11 9 9 9 11 14 15 13 11 11 11 10 11 11 16 18 17 15 15 19 20 18 19 22 21 19 17 18 19 19 17 16 16 15 14 11 10 9 9 10 11 12 11 10 10 10 10 10 9 8 8 8 7 7
1 5 8 10 12 7 5 4 4 11 12 3 4 9 8 8 8 7 8 7 5 7 9 10 11 10 6 7 8 9 10 9 8 7 7 10 12 11 11 10 10 11 8 8 12 15 16 15 15 14 17 21 22 21 21 23 24 23 20 19 20 20 19 16 14 15 16 13 10 8 8 10 12 12 11 11 11 11 10 10 10 9 8 8 7 7
5 6 6 10 14 7 2 4 6 10 11 6 6 9 8 7 7 7 7 7 6 7 9 10 11 10 7 4 6 9 9 7 7 10 11 12 13 13 12 9 9 10 8 9 13 15 14 14 13 14 18 20 22 20 21 26 27 26 24 21 21 22 20 18 16 15 15 14 12 9 7 9 11 11 11 11 11 11 11 11 11 10 9 8 8 7
9 9 9 12 14 9 7 7 8 9 10 8 8 9 8 6 6 7 7 7 7 6 6 8 10 9 5 3 2 5 10 7 4 7 12 14 15 15 12 10 11 12 11 11 12 13 14 15 14 16 17 18 19 20 22 26 27 28 28 24 23 23 22 21 20 19 16 14 14 11 8 8 10 10 10 11 11 11 11 11 12 11 10 9 8 8
7 9 13 13 11 11 12 8 7 8 9 10 9 9 8 6 6 7 7 7 8 6 5 6 6 7 5 6 6 6 6 6 7 9 10 11 11 12 13 16 16 14 14 13 11 11 13 15 16 16 15 14 16 19 21 24 26 27 27 25 22 22 25 25 23 22 18 15 15 14 11 9 9 10 10 11 11 11 12 12 12 12 11 10 10 10
9 8 12 13 9 12 14 12 7 6 9 11 10 9 7 5 6 7 6 5 5 5 7 7 5 6 4 4 7 7 5 6 9 12 13 14 14 15 16 20 18 16 16 13 12 11 11 13 16 16 13 11 13 17 19 21 22 22 23 23 20 19 24 26 25 24 21 17 16 14 12 11 10 10 10 10 11 12 12 12 12 12 12 11 11 11
10 8 10 16 12 12 15 14 11 8 8 9 9 9 8 7 6 4 2 0 2 3 5 7 4 2 3 4 6 6 4 5 8 10 12 13 14 14 15 17 19 18 16 15 13 10 10 13 16 15 11 10 12 16 19 19 19 20 20 21 20 19 22 25 26 27 25 22 19 15 14 12 11 10 10 10 11 12 13 13 13 13 13 12 12 12
9 6 9 16 14 11 14 14 13 11 6 5 8 10 7 6 6 5 3 3 1 5 4 4 5 4 6 7 7 7 4 5 7 8 8 8 9 12 14 17 19 19 18 16 13 10 13 17 17 14 10 11 13 14 15 16 17 18 19 20 21 20 21 24 25 26 27 25 21 17 15 13 12 11 11 12 13 14 14 14 14 14 14 13 13 12
6 5 6 13 14 13 12 11 12 12 9 5 6 8 5 4 5 5 4 3 5 8 5 5 7 7 6 6 10 13 11 9 9 8 8 7 8 11 13 16 17 17 17 17 14 13 16 17 15 12 10 9 10 11 12 12 13 13 14 16 18 17 18 20 21 24 25 23 19 18 17 14 13 12 12 14 14 14 15 16 15 15 14 12 12 13
5 6 6 10 13 13 11 9 10 11 12 10 5 4 6 5 5 5 5 4 6 7 6 7 8 7 6 5 10 14 11 11 10 8 8 8 10 11 13 15 16 17 18 18 18 18 18 17 16 13 11 10 9 9 11 11 12 12 13 14 15 15 16 19 20 22 22 19 17 17 17 15 13 12 13 14 14 13 14 16 16 15 14 13 12 12
5 6 5 8 10 10 9 9 9 8 11 12 8 6 7 6 5 5 4 5 7 6 6 7 8 5 2 1 7 9 10 11 9 8 8 9 11 12 13 14 15 17 17 17 18 19 18 19 18 16 16 17 15 14 14 14 15 16 16 17 18 17 16 18 19 19 19 18 16 16 17 17 15 14 13 13 13 13 13 16 17 16 16 15 13 13
6 5 5 6 8 8 7 8 11 10 10 10 9 8 8 6 4 4 4 6 7 6 5 7 6 2 5 5 3 9 12 10 9 10 9 10 13 14 14 15 14 14 15 15 16 17 17 16 16 17 19 19 19 18 17 17 18 18 19 19 19 18 16 18 18 16 16 17 16 17 18 18 17 15 13 12 13 14 15 16 18 18 18 16 15 14
5 6 6 6 7 8 8 9 13 13 9 8 9 10 10 8 6 6 7 7 6 6 5 6 3 3 5 6 2 9 10 9 11 11 10 12 15 15 15 15 13 14 14 14 14 14 14 15 16 17 16 16 16 15 15 17 17 17 17 15 14 14 14 16 17 15 14 15 16 18 19 18 16 15 13 13 13 14 16 17 18 18 18 16 15 14
1 4 7 8 8 7 5 5 6 8 8 9 8 8 9 9 8 7 7 6 6 6 6 7 3 3 2 5 4 6 7 10 13 12 11 13 15 15 15 14 14 14 14 13 13 13 13 15 15 14 12 12 13 12 12 14 13 12 12 12 12 12 12 14 14 13 13 13 15 17 18 17 16 14 14 14 14 14 16 17 17 17 17 15 14 14
0 4 7 8 7 7 5 4 5 6 8 10 8 7 8 9 9 8 7 5 6 7 7 7 5 3 2 2 2 5 8 11 13 13 12 13 14 14 14 13 13 13 12 12 12 12 12 13 13 11 11 11 10 10 11 11 10 9 9 12 13 12 12 12 11 11 10 10 11 14 17 17 16 15 15 15 15 15 16 17 17 16 15 14 13 14
3 4 6 7 6 7 9 8 7 7 8 8 9 9 11 12 11 8 6 5 6 7 7 6 3 3 3 1 3 7 9 10 11 12 12 12 14 14 12 12 12 12 12 12 12 12 12 12 12 11 11 10 9 9 10 9 10 10 9 11 13 12 12 11 11 11 9 8 9 11 15 17 16 15 16 16 16 15 15 17 16 15 14 13 13 14
3 1 3 6 5 5 6 4 4 5 7 8 9 9 9 12 13 9 6 6 7 8 9 7 2 6 5 5 6 8 9 10 10 11 11 11 13 14 13 13 14 14 14 13 13 13 12 12 12 12 12 11 10 9 9 8 9 9 9 10 11 10 11 11 10 10 9 9 9 10 12 15 15 15 16 18 18 17 15 16 15 14 14 13 13 14
2 2 2 2 2 2 4 7 11 10 7 10 12 10 8 10 11 9 8 8 5 6 8 5 7 12 9 9 9 8 8 9 9 10 11 12 14 15 15 15 15 15 14 13 12 11 11 11 12 12 12 12 11 10 10 9 8 8 9 10 9 9 10 10 9 9 9 9 9 8 10 13 13 14 16 17 18 18 17 15 14 14 14 14 14 14
4 4 3 2 1 2 5 7 12 14 10 7 6 7 7 8 8 7 7 6 4 4 4 2 11 13 11 11 11 8 7 7 8 11 13 14 14 15 15 15 14 15 15 14 12 11 11 11 11 11 11 12 12 10 10 9 8 8 9 9 9 9 9 9 8 8 8 8 8 8 10 11 11 13 15 16 17 19 19 16 14 14 14 14 15 16
4 5 5 3 3 1 3 3 7 11 9 4 2 1 0 2 5 5 2 2 3 2 3 8 13 11 9 10 10 8 8 8 9 11 13 13 14 14 15 15 14 14 14 14 12 11 11 11 11 10 10 11 12 11 10 10 9 9 9 9 8 7 7 7 7 6 6 6 7 8 9 9 11 12 13 14 14 16 18 18 16 16 15 15 15 16
2 3 6 5 5 3 2 4 5 7 8 5 3 3 4 5 5 6 6 6 6 8 10 13 15 13 9 9 8 7 8 10 11 13 13 13 13 14 15 15 14 14 14 14 13 12 12 12 11 11 10 10 10 10 10 10 10 9 8 8 7 6 6 6 6 5 5 5 5 5 7 7 8 10 11 13 13 12 15 18 19 19 19 18 17 17
3 3 5 5 5 6 4 2 4 6 8 8 7 7 5 5 8 9 8 8 8 10 12 14 15 12 9 9 9 8 8 10 11 13 13 12 12 13 14 15 15 14 14 14 14 13 13 13 12 12 11 10 9 9 9 9 9 9 9 9 9 8 8 7 7 6 5 5 5 4 5 5 5 6 8 10 11 10 12 15 18 19 20 20 20 20
3 3 5 5 6 5 7 7 3 2 6 9 10 9 7 5 7 8 7 8 7 6 9 11 10 8 8 10 11 10 11 13 14 13 12 11 10 12 14 14 14 14 14 14 14 13 14 14 13 12 12 11 10 9 9 8 8 7 8 8 8 8 7 7 7 7 6 6 5 4 5 4 4 4 5 6 7 8 9 10 12 15 18 20 21 21
4 4 5 6 6 4 6 9 7 4 1 5 7 5 3 4 4 5 6 9 10 6 3 6 7 9 11 11 11 11 11 13 14 13 11 11 10 10 13 14 15 14 13 13 13 13 13 14 13 13 12 12 11 11 10 9 8 8 8 7 7 7 7 7 6 6 6 6 4 4 4 4 4 4 4 5 5 6 7 8 9 10 12 15 18 19
4 5 5 5 5 4 4 7 7 6 5 2 1 1 2 1 1 4 6 7 9 8 6 8 9 10 12 11 11 11 12 15 18 21 21 19 18 19 18 17 17 18 18 17 15 13 12 14 15 14 13 13 12 12 11 11 10 10 9 8 8 9 8 8 8 7 7 6 5 4 3 2 3 3 3 4 5 6 7 8 9 10 12 15 18 20
6 6 5 4 5 4 5 7 6 5 3 2 3 2 2 2 6 10 9 7 8 9 10 11 9 9 12 14 15 16 18 20 22 23 23 22 20 21 22 21 20 19 17 16 15 14 14 15 16 15 14 13 12 11 12 11 10 9 9 9 8 8 9 8 9 9 8 8 7 5 4 3 2 1 2 3 4 5 6 6 9 10 12 15 17 17
6 6 5 4 4 4 5 6 4 1 3 4 3 3 3 6 9 9 8 7 7 8 10 11 10 11 15 18 19 20 21 22 21 18 17 16 16 17 19 19 18 16 14 14 13 14 16 17 16 15 15 14 13 13 13 12 11 9 8 9 8 7 7 7 7 8 7 7 7 6 5 4 3 1 1 2 3 4 4 5 7 8 10 12 12 12
4 5 5 4 3 4 5 5 3 3 3 3 4 3 2 2 3 3 5 6 3 5 10 11 11 12 15 17 19 21 21 20 16 14 15 14 14 15 16 15 14 13 13 13 12 11 12 12 12 12 11 11 12 14 14 13 13 11 9 8 8 7 7 7 7 7 6 6 6 5 5 4 3 2 1 2 3 3 4 4 5 6 8 9 9 10
4 4 4 4 4 5 6 5 4 4 3 3 5 3 4 4 4 3 4 6 2 4 12 13 12 14 15 15 17 18 16 12 10 10 12 13 13 14 13 13 13 11 12 12 12 11 9 8 9 9 9 9 10 12 14 13 12 11 9 8 7 6 6 7 7 7 6 6 5 5 4 4 3 3 2 3 4 4 5 5 5 6 7 7 8 8
4 2 3 5 6 5 6 7 5 2 0 3 5 3 2 2 4 4 3 5 4 6 11 12 13 14 15 15 15 12 7 4 6 9 11 11 11 11 11 11 11 10 11 11 10 10 9 9 10 9 9 10 10 10 10 10 9 7 8 8 7 6 6 7 7 7 6 6 5 5 4 4 4 4 4 4 4 4 5 5 6 6 7 7 7 7
4 3 3 6 6 5 6 7 3 2 3 3 3 3 2 3 4 5 5 5 6 8 10 10 11 11 11 11 9 4 3 3 8 11 11 11 11 10 10 9 9 9 9 9 8 8 8 8 8 8 8 8 9 8 8 7 7 6 6 7 6 5 5 6 6 6 6 5 5 4 4 4 4 4 4 5 5 5 6 6 7 7 8 8 7 8
4 4 5 7 6 4 5 5 1 4 4 3 4 3 3 2 2 3 2 5 8 9 10 9 9 8 8 8 7 9 10 11 13 13 12 11 10 9 9 8 8 8 8 8 9 8 8 7 6 7 7 7 8 8 8 7 7 7 6 6 5 5 5 6 6 6 6 5 5 5 4 4 5 6 7 6 6 7 7 7 8 8 9 9 9 10
3 4 5 7 6 5 4 5 2 4 3 5 4 4 5 3 0 2 5 8 9 9 9 9 8 7 8 8 10 11 13 13 13 12 11 10 9 8 8 7 7 8 8 9 9 8 9 8 7 7 8 8 8 8 9 10 10 8 7 6 6 7 8 9 10 10 9 8 7 8 7 8 10 12 12 11 10 10 9 9 10 10 10 11 12 12
2 3 5 2 2 4 5 4 2 3 2 5 2 3 4 3 5 8 9 11 11 10 11 10 9 8 8 9 10 10 10 10 9 9 9 9 8 7 7 6 7 7 7 8 8 8 10 8 7 8 9 9 9 10 11 12 11 10 8 8 8 8 10 13 13 12 10 10 10 11 12 13 15 16 17 17 16 16 14 12 12 12 13 13 14 14
4 4 4 3 4 4 3 1 1 4 5 4 3 5 6 7 9 10 10 10 10 11 11 11 9 8 8 9 9 8 7 7 7 7 8 7 7 7 6 6 6 6 6 7 6 8 10 9 8 10 9 9 9 11 12 12 11 11 12 12 11 10 12 14 14 12 12 14 14 14 14 14 15 16 17 17 19 20 19 16 15 15 16 16 16 17
5 4 3 5 5 4 4 5 4 5 8 9 9 10 10 9 9 8 9 9 9 9 9 10 9 8 7 6 6 6 6 7 7 7 7 6 6 6 6 6 6 6 7 7 7 9 11 9 9 9 9 8 9 10 11 11 11 12 14 14 13 12 13 15 15 15 15 16 14 14 14 14 14 15 16 16 18 19 20 18 17 17 18 18 19 20
5 4 3 3 6 7 8 7 7 8 9 10 11 11 10 9 9 10 12 13 12 11 9 9 8 7 7 6 6 5 6 7 7 6 6 6 6 6 6 6 7 7 8 7 7 9 10 9 8 8 8 9 10 10 11 10 10 11 13 13 13 13 13 14 15 15 16 16 15 15 16 16 16 16 16 17 17 18 19 19 18 18 19 20 21 23
4 2 2 3 5 4 4 6 8 8 10 10 10 10 10 10 10 10 11 12 12 10 10 9 7 7 8 8 7 6 6 6 6 6 6 5 5 6 6 6 7 8 8 7 8 8 9 8 8 8 9 10 11 11 11 11 11 11 12 12 13 13 13 14 14 15 15 16 16 16 17 17 17 17 17 18 18 18 19 19 19 20 21 21 22 24
3 1 1 1 2 2 5 9 10 9 9 9 8 9 9 9 9 10 11 11 11 10 9 9 8 7 7 8 7 6 6 6 6 6 6 6 6 6 6 8 9 9 8 8 8 9 9 9 9 9 11 11 11 11 11 11 11 12 12 12 12 13 14 14 15 15 16 16 16 16 17 17 18 18 19 19 19 19 20 20 21 22 22 23 23 24
2 2 1 1 3 5 7 9 10 9 8 7 7 8 8 8 9 9 9 9 9 9 8 7 7 8 7 7 7 6 5 5 6 6 6 6 6 6 8 9 9 9 9 9 9 10 9 9 10 11 12 12 12 12 12 12 12 12 13 13 12 13 14 15 15 16 16 16 17 17 18 18 18 19 19 19 20 20 21 21 22 23 22 22 23 23
3 2 1 1 3 3 5 8 7 4 4 7 7 7 7 6 6 6 6 5 5 5 5 5 5 5 6 6 6 5 5 4 5 6 6 6 7 8 9 9 9 10 10 10 10 10 10 10 11 11 11 11 11 10 10 10 11 11 11 11 12 12 14 15 16 17 17 16 17 17 17 18 18 19 20 21 21 22 22 22 23 25 24 24 24 24
4 4 3 1 1 3 5 7 4 3 5 8 8 6 5 5 4 4 3 3 2 2 3 4 4 4 4 4 4 5 5 5 5 7 7 7 8 9 9 10 10 10 10 10 10 10 10 10 10 9 9 9 9 9 9 9 10 10 11 11 11 12 13 13 14 15 16 16 17 18 18 19 20 21 21 22 22 23 24 24 24 26 27 28 28 28
Wind_Direction
200 208 218 218 225 213 211 227 235 281 306 292 253 218 223 233 204 221 212 145 185 213 203 219 227 220 226 230 199 179 195 210 217 213 198 193 190 194 197 188 184 184 187 191 195 201 201 201 199 191 183 172 162 148 150 163 174 171 163 167 173 169 176 175 163 166 169 158 153 146 139 136 132 133 128 121 123 125 126 122 111 109 101 87 77 62
208 222 223 218 230 225 209 226 241 297 298 277 271 246 223 237 217 205 189 141 173 222 216 214 230 228 219 234 214 175 190 209 216 212 197 197 194 195 199 188 181 180 182 188 195 200 199 198 196 187 177 170 160 133 142 172 176 159 153 167 182 184 183 173 165 170 166 158 158 147 140 136 130 127 125 126 130 134 148 154 145 137 129 110 96 114
215 230 231 221 222 234 214 231 249 260 255 249 255 258 233 229 225 198 157 137 174 203 231 223 225 229 224 230 201 168 197 210 213 214 203 202 198 194 195 185 177 178 182 189 193 197 197 193 190 186 171 168 162 136 151 176 167 162 169 174 186 190 179 166 163 168 163 164 160 146 140 133 125 128 134 134 125 121 125 128 134 144 139 116 91 78
212 220 226 219 184 190 224 232 244 242 238 242 242 244 241 220 220 208 166 190 200 199 242 239 226 230 226 218 185 180 206 210 213 216 205 200 200 195 191 182 179 182 186 190 193 193 193 191 188 182 163 156 150 142 164 178 163 172 182 177 183 184 172 161 165 171 166 165 157 146 142 140 143 147 146 136 119 112 108 104 117 130 119 100 88 78
236 206 205 205 163 191 224 219 224 236 225 228 236 240 242 224 222 226 177 196 199 203 240 253 243 226 205 202 200 195 203 205 206 210 201 195 197 194 187 184 182 186 189 189 191 192 190 188 185 177 163 157 149 146 166 176 170 175 176 177 179 171 164 164 170 175 168 160 154 155 155 153 152 142 132 126 117 112 108 105 110 108 100 96 94 86
242 146 146 205 188 202 223 216 213 226 229 222 225 238 252 247 228 207 164 192 210 209 212 222 242 224 187 202 207 188 193 199 197 202 199 192 193 188 185 187 185 191 194 190 192 191 185 182 180 171 150 141 145 155 172 174 170 174 170 171 168 161 164 168 172 176 167 156 154 157 153 145 138 126 125 129 122 119 117 116 114 109 110 110 101 92
232 153 164 218 215 212 220 222 213 212 235 236 206 219 245 262 246 214 193 204 227 233 191 200 235 233 185 200 198 184 193 196 194 199 196 194 195 189 186 186 189 199 196 195 199 187 177 174 176 179 161 130 126 144 175 177 165 169 173 170 164 164 168 170 175 177 168 159 152 146 137 131 131 130 136 136 127 126 128 126 124 120 116 111 106 100
223 196 190 205 211 216 217 225 213 202 228 249 190 198 224 243 242 229 229 226 232 258 192 201 232 243 198 195 186 181 193 198 192 192 197 197 193 190 191 185 189 201 199 204 196 165 171 190 197 193 185 176 144 133 158 172 162 162 171 177 176 172 170 173 180 174 164 158 144 137 136 134 140 144 144 140 136 135 130 120 111 112 110 106 105 100
207 219 205 197 210 215 217 224 207 202 226 245 202 200 213 226 226 224 234 237 234 244 230 214 224 234 217 193 180 177 195 200 183 180 196 192 183 191 197 186 185 199 206 201 168 142 178 203 212 202 175 162 147 135 155 168 164 159 161 177 183 178 175 178 179 166 155 157 145 138 144 142 145 151 145 141 141 140 134 125 118 120 120 117 114 107
184 214 206 198 210 215 221 222 194 198 218 227 219 217 213 223 225 225 233 235 230 237 244 225 212 219 209 173 171 183 206 201 171 171 186 172 179 200 201 186 181 196 198 171 154 176 194 197 209 201 158 140 134 137 159 169 170 166 165 180 183 181 183 181 178 164 154 159 151 141 149 150 150 148 143 145 147 143 139 134 131 129 125 123 122 119
97 206 208 205 217 228 225 210 182 210 216 194 229 223 211 220 223 228 236 235 229 233 243 229 211 224 216 164 177 204 208 188 158 165 176 165 176 206 213 190 181 194 183 145 163 190 191 185 195 181 148 143 145 147 157 165 171 173 173 184 186 185 188 186 182 168 158 161 153 143 153 154 153 152 149 151 148 142 140 136 133 131 129 129 125 122
223 208 209 217 231 256 281 196 206 230 228 216 230 221 206 210 212 218 222 224 230 233 237 222 208 223 226 181 193 187 158 148 164 174 177 169 172 201 222 208 193 193 176 160 167 172 173 174 177 163 150 154 161 162 159 157 162 169 172 180 186 188 190 187 184 173 164 162 153 147 155 157 155 154 153 153 149 146 146 143 140 139 137 132 122 118
218 210 200 210 223 234 243 216 192 214 227 220 225 224 215 208 209 220 216 214 227 233 238 221 205 214 211 127 135 129 118 128 146 154 167 168 170 188 204 210 212 196 172 168 164 159 165 164 159 160 160 163 165 164 162 157 157 166 174 180 185 190 192 189 181 175 172 166 156 150 156 164 160 156 157 157 154 152 150 148 146 143 139 135 128 125
207 209 203 207 206 207 230 234 182 189 210 214 219 222 218 206 211 228 221 216 225 214 209 214 208 217 197 125 113 96 106 138 112 109 143 158 168 187 191 198 203 180 160 165 166 167 168 159 157 162 161 164 164 161 165 165 160 165 174 178 180 186 191 189 179 175 174 169 162 155 157 171 168 162 165 162 158 158 155 152 149 145 144 144 140 137
206 208 200 206 196 185 214 241 236 202 198 211 226 230 229 219 217 236 239 234 241 214 189 192 210 228 217 140 124 117 127 147 125 126 145 157 177 190 184 183 176 155 158 168 164 172 171 158 159 162 157 159 163 163 166 168 168 171 176 177 176 177 182 183 181 179 175 169 167 164 163 171 171 169 170 167 165 163 158 153 151 151 149 148 149 151
223 218 193 204 206 188 203 230 247 240 209 204 222 230 227 227 227 236 249 304 324 279 204 187 212 215 147 130 117 110 126 143 130 132 137 144 159 157 145 150 147 144 160 166 155 157 159 154 156 157 154 156 163 166 165 167 175 180 180 179 180 180 179 180 183 184 182 176 172 173 174 172 170 173 173 172 171 164 159 157 155 154 152 155 160 160
230 232 185 193 205 207 208 215 225 237 236 199 217 232 228 233 251 247 210 147 176 263 238 193 218 181 149 161 142 130 160 160 132 114 103 102 113 113 111 122 130 137 148 152 148 148 149 150 152 153 158 161 163 164 164 168 173 178 179 176 178 183 182 183 184 183 182 177 172 177 183 179 176 180 178 177 175 167 162 160 158 158 161 165 166 161
237 252 185 181 199 211 216 232 233 233 244 226 215 234 234 230 261 267 247 191 199 235 233 204 217 204 187 181 159 165 178 157 126 106 99 96 95 97 97 105 117 128 134 134 129 126 132 138 138 141 148 152 157 161 162 164 163 167 173 170 171 175 177 183 184 179 177 174 172 179 186 186 185 187 187 184 179 172 167 163 160 164 167 166 163 160
233 255 213 191 207 204 200 237 246 231 240 252 261 253 239 234 232 230 241 237 222 233 232 212 214 225 230 190 167 175 162 128 118 112 109 103 98 97 95 96 104 113 117 120 119 117 122 129 128 126 133 138 140 143 149 153 150 149 151 154 159 159 164 175 179 177 177 177 179 184 187 190 193 196 200 192 180 174 169 161 159 165 167 163 161 162
212 252 230 206 219 205 186 213 232 220 221 239 264 255 235 245 247 231 229 236 233 229 230 222 212 223 302 77 167 163 128 120 129 121 110 99 96 98 98 98 102 110 115 115 117 120 125 132 133 135 140 141 136 135 143 147 145 147 151 152 155 156 162 172 177 180 183 185 188 188 187 193 199 203 204 196 182 174 171 164 162 166 167 164 161 162
197 223 233 226 232 219 202 210 220 224 214 212 228 235 230 230 228 237 242 240 245 239 228 231 211 149 26 5 175 145 128 138 139 120 112 103 98 96 95 99 103 110 116 116 117 123 128 134 142 144 141 137 136 138 146 150 151 158 162 158 158 163 168 174 180 184 187 191 192 189 189 196 202 202 200 198 189 179 177 175 171 171 170 167 164 162
204 216 228 233 232 224 227 225 220 229 239 224 215 221 230 231 222 233 238 229 240 253 246 244 212 107 25 349 82 122 127 139 133 123 116 106 102 99 98 101 105 107 113 118 121 126 131 139 147 145 140 140 142 144 151 157 160 165 165 157 155 162 167 173 179 180 181 188 190 188 192 198 203 202 200 200 195 187 186 184 179 176 172 169 167 163
311 240 238 232 231 234 248 263 242 241 260 259 242 228 226 230 230 236 244 238 239 251 256 255 235 122 13 346 55 118 139 136 132 128 117 108 106 107 108 108 111 114 116 119 123 126 131 140 147 148 150 152 150 152 159 159 158 161 158 151 154 159 159 164 170 170 171 177 184 189 194 199 204 203 199 200 199 194 193 190 183 180 177 174 172 166
11 238 250 244 244 247 234 242 258 248 250 253 249 242 235 233 232 233 240 250 250 248 246 249 238 149 117 2 75 134 137 126 127 129 123 117 114 116 119 118 117 120 121 120 124 130 136 141 148 152 157 157 149 153 162 157 153 159 154 154 161 160 154 158 161 163 165 169 178 189 195 199 205 204 199 199 199 197 200 200 193 186 184 182 177 172
212 228 247 244 246 243 221 210 218 220 230 241 237 241 246 242 242 249 244 235 247 250 242 246 236 124 117 139 135 140 137 124 120 124 124 120 119 124 130 128 125 126 126 124 124 128 134 140 147 150 153 157 151 151 158 152 151 157 152 154 161 156 154 161 163 161 163 170 178 186 190 193 200 205 202 199 194 191 200 209 203 192 189 189 185 182
201 204 263 255 253 252 238 238 262 239 223 228 231 240 253 244 243 254 248 233 243 246 246 250 179 114 120 143 133 131 137 129 118 120 120 119 124 131 134 131 126 125 125 123 123 128 131 132 141 144 143 146 146 145 148 147 148 152 148 151 155 155 159 167 168 165 167 177 183 186 187 188 194 202 203 201 198 192 194 205 205 193 190 192 190 189
178 101 51 301 266 296 314 325 325 311 257 227 222 224 239 243 244 252 249 245 249 247 255 249 145 135 139 142 136 132 134 128 124 124 124 127 127 126 128 129 125 124 123 120 122 128 130 128 132 136 134 134 135 134 136 139 141 146 151 152 152 158 166 171 177 179 180 186 188 185 185 187 190 198 203 205 205 202 196 196 200 197 197 198 197 197
195 159 113 85 147 262 296 320 335 325 290 250 226 219 226 226 225 235 246 261 279 269 277 90 119 131 137 135 130 127 124 123 130 129 126 127 126 124 128 129 126 124 118 115 118 120 120 122 125 129 130 130 130 132 136 138 135 139 150 150 148 156 166 171 180 183 184 186 181 178 184 190 192 196 201 204 208 212 207 199 198 201 203 205 206 206
218 179 151 142 145 219 300 333 350 335 320 327 51 77 255 190 192 196 205 301 301 248 133 110 110 115 124 123 112 100 91 95 111 119 119 122 124 128 129 124 123 123 114 109 112 112 112 117 120 123 128 130 131 131 131 130 128 133 145 147 148 161 163 159 163 166 170 174 171 173 179 189 195 192 193 198 205 212 211 206 204 205 206 210 212 212
228 161 153 177 191 199 311 8 16 339 329 343 20 34 45 74 97 98 82 71 86 101 106 112 112 109 107 103 101 99 94 96 104 110 116 121 127 130 128 123 122 122 116 110 108 106 109 114 114 113 120 126 129 131 127 121 120 126 134 137 139 145 142 136 141 149 161 165 167 169 169 184 199 191 187 197 202 205 209 212 211 210 211 210 205 206
209 165 147 175 214 214 227 330 3 346 335 334 335 344 2 48 65 62 52 58 90 111 114 110 107 106 102 100 110 121 117 113 110 108 113 121 129 130 125 123 124 120 115 112 107 104 105 107 107 106 108 111 114 122 124 119 117 117 121 125 126 126 127 128 131 136 142 143 145 155 163 178 194 193 196 206 210 211 217 222 222 224 227 223 217 217
192 178 163 190 234 227 201 207 222 0 345 318 303 308 328 16 50 56 47 38 49 103 133 123 109 113 119 116 121 123 116 111 103 101 111 117 124 131 129 125 125 123 122 119 113 104 96 95 98 97 99 102 103 107 112 113 114 111 111 113 113 116 120 120 126 132 123 116 124 138 149 160 168 181 197 207 217 222 220 223 226 229 233 232 229 227
171 177 187 200 232 240 196 192 184 154 232 285 278 285 353 35 53 63 59 43 30 29 122 123 109 120 127 124 121 111 95 82 67 60 72 82 81 94 113 122 119 112 108 108 109 103 89 81 80 78 79 83 84 88 96 102 103 100 98 97 93 97 101 98 103 109 104 103 114 124 131 148 162 176 198 206 219 226 221 222 223 222 227 228 228 229
173 200 212 204 222 236 185 171 179 199 213 224 191 116 78 85 167 81 67 55 44 41 66 91 105 125 130 130 125 106 83 70 62 54 52 56 54 54 62 74 77 72 66 66 76 86 81 71 66 63 63 64 65 69 77 83 88 89 90 90 89 91 91 91 91 88 89 92 89 93 106 126 151 174 215 222 222 231 231 234 238 236 232 231 232 233
184 202 223 219 221 217 163 164 201 233 224 81 87 130 127 137 122 99 81 68 74 83 90 93 98 102 104 112 116 109 97 84 76 68 63 62 64 64 66 68 67 65 63 59 58 59 56 53 55 54 51 50 53 57 59 63 69 78 82 81 82 85 83 85 88 84 82 81 76 76 76 67 87 146 240 245 239 245 245 241 242 236 228 229 233 234
197 200 226 238 216 186 172 190 214 194 98 89 106 138 142 142 131 111 85 69 86 110 109 103 100 95 100 111 116 116 111 99 85 81 81 80 82 87 89 88 83 80 80 75 66 58 51 48 53 55 50 47 48 46 46 49 51 57 67 70 70 75 78 79 79 77 73 70 68 65 60 54 51 46 328 280 273 267 258 247 236 226 228 238 239 238
235 221 234 246 225 203 205 206 173 130 141 143 125 101 57 108 117 98 96 91 87 127 124 120 119 115 115 118 120 122 121 111 100 100 102 99 95 93 90 86 83 77 70 68 65 62 59 58 62 63 58 59 58 51 49 54 54 49 46 48 52 59 67 70 66 63 59 56 53 44 37 34 19 5 337 286 284 271 261 259 243 226 233 240 233 232
248 236 236 240 229 229 242 234 195 186 203 155 112 68 9 11 6 7 106 110 96 142 137 134 133 130 129 131 134 139 135 117 105 110 112 110 105 99 92 83 79 72 61 54 46 40 41 51 57 49 38 42 49 46 43 43 45 47 43 41 44 53 60 59 50 44 38 34 30 18 6 0 346 333 315 296 287 266 252 256 254 243 236 230 224 228
259 241 237 243 235 236 255 255 239 229 222 98 93 68 26 11 336 292 187 140 124 137 138 138 140 139 140 144 148 157 169 145 117 116 120 118 110 105 102 94 87 80 71 63 55 46 41 43 49 43 30 28 31 31 28 21 19 32 42 36 32 39 48 44 35 28 20 12 10 3 348 329 312 303 294 288 284 272 261 258 252 243 235 230 230 231
253 258 252 252 249 251 260 256 247 72 64 63 57 38 20 358 312 261 210 152 130 132 130 132 134 131 136 145 140 99 23 82 117 120 120 116 106 97 93 87 80 74 68 59 54 53 50 45 46 42 32 26 20 13 12 11 9 14 17 11 10 18 23 18 13 8 2 356 352 343 331 322 309 289 276 279 281 271 263 261 253 240 234 234 233 229
238 246 246 247 253 278 287 272 235 89 66 27 23 17 353 336 288 245 155 116 128 139 133 128 131 135 142 139 106 73 69 87 107 114 110 104 96 85 76 69 61 56 50 41 35 34 35 35 30 24 17 9 3 1 355 352 354 354 349 346 343 335 333 334 332 326 325 329 327 318 313 312 295 268 254 261 275 273 261 254 251 243 236 234 232 231
259 256 246 243 251 260 265 260 214 95 29 341 12 26 338 314 166 113 106 115 125 128 119 113 116 125 128 111 93 95 100 100 105 107 98 89 84 74 64 54 45 38 28 25 21 8 7 16 10 360 358 350 345 345 339 333 334 335 334 332 329 318 308 302 301 301 303 303 298 292 289 289 283 273 261 256 258 262 260 253 250 247 241 237 236 237
358 290 255 259 302 269 249 251 241 91 18 316 354 44 358 10 100 114 118 122 122 113 106 105 105 104 108 107 105 109 110 104 102 99 87 79 72 63 54 40 33 27 14 17 12 346 345 0 353 337 340 338 329 324 321 320 323 324 316 310 312 307 295 293 297 298 294 287 282 281 282 281 281 278 273 267 261 258 258 257 253 249 245 242 240 241
23 314 280 38 18 303 282 306 28 71 60 25 45 74 73 84 108 125 128 126 128 122 111 106 104 103 112 120 119 115 108 94 81 72 65 58 49 43 38 27 25 20 5 6 358 332 333 345 338 326 328 328 321 317 314 313 312 307 301 299 301 297 290 292 296 292 286 283 282 281 280 277 277 276 273 272 269 264 262 261 258 254 250 247 245 244
40 21 11 52 50 27 49 79 92 81 70 63 70 89 96 96 104 113 109 107 113 115 110 111 109 101 103 117 120 110 88 67 59 55 44 37 32 26 22 17 16 8 359 357 346 330 331 335 329 324 323 321 315 311 308 307 304 299 296 295 295 292 289 289 289 285 283 282 280 278 275 271 270 269 267 266 267 266 265 261 258 256 252 248 247 246
63 45 28 78 103 89 76 88 100 95 86 79 79 87 91 88 88 87 81 80 83 85 92 105 106 89 77 80 86 79 60 48 46 40 30 25 19 14 13 11 4 356 352 351 342 335 337 336 329 324 320 315 312 308 304 300 296 293 293 292 290 288 286 285 283 281 279 276 274 272 271 269 268 266 264 262 261 261 261 258 256 255 252 250 249 247
74 26 27 127 151 137 99 103 107 106 107 103 97 97 95 93 96 95 85 83 86 87 86 89 88 77 67 61 58 53 48 45 41 32 24 17 11 9 7 2 358 353 351 349 344 341 341 336 329 325 322 318 316 312 306 300 296 293 291 289 287 285 283 280 279 277 274 274 275 273 270 268 266 263 263 262 260 258 256 254 254 253 250 250 249 248
48 317 232 139 143 126 120 122 121 117 117 115 112 111 108 102 101 97 92 92 94 92 89 83 74 66 59 53 49 47 47 47 40 27 16 8 5 6 1 355 352 348 345 343 340 340 339 333 328 325 321 318 317 315 312 309 306 302 297 293 289 285 283 280 276 274 273 272 272 270 269 268 266 265 265 263 260 258 256 255 255 253 250 250 250 250
309 262 258 87 111 116 126 137 138 132 130 125 114 110 112 110 106 101 98 98 94 85 82 78 70 65 58 46 41 43 49 50 37 21 8 0 357 356 352 349 346 344 343 341 339 338 336 331 326 321 317 315 314 313 310 306 305 304 302 299 295 290 287 283 280 278 276 273 272 271 269 268 267 267 267 265 263 261 260 258 256 253 251 251 249 247
284 291 350 207 181 152 142 146 143 134 136 133 122 114 112 111 110 107 99 91 83 71 61 56 59 63 55 44 38 38 38 34 21 9 1 355 354 353 348 345 344 343 342 339 336 335 333 330 327 323 320 319 318 316 314 312 310 309 306 302 299 294 289 286 284 282 280 277 276 274 272 272 271 269 267 266 265 263 262 261 257 252 249 246 244 242
352 359 5 353 54 85 126 141 129 72 111 129 130 129 125 121 123 122 109 90 74 50 27 21 20 26 35 40 41 32 20 7 359 357 351 345 346 347 345 345 345 342 341 340 337 334 334 333 332 332 330 330 332 331 329 325 320 316 312 309 305 300 295 291 289 286 283 279 276 275 275 275 274 272 270 268 267 266 264 264 262 258 254 251 248 246
Height
1466 1466 1464 1461 1457 1453 1454 1451 1449 1447 1443 1442 1439 1440 1441 1438 1438 1435 1431 1434 1439 1444 1447 1446 1446 1445 1444 1442 1441 1448 1453 1454 1455 1455 1458 1462 1465 1468 1469 1471 1473 1475 1477 1478 1480 1481 1482 1483 1485 1487 1489 1491 1492 1494 1499 1502 1503 1505 1509 1512 1514 1516 1517 1519 1522 1525 1527 1528 1529 1529 1529 1530 1530 1530 1530 1531 1531 1531 1530 1529 1529 1528 1528 1528 1529 1529
1464 1465 1459 1455 1452 1448 1450 1450 1449 1452 1452 1450 1446 1441 1440 1438 1435 1431 1432 1437 1441 1446 1446 1443 1445 1443 1442 1441 1438 1444 1452 1453 1453 1454 1457 1461 1463 1467 1468 1469 1472 1474 1475 1477 1478 1479 1481 1482 1484 1486 1489 1491 1492 1496 1501 1502 1503 1506 1510 1513 1514 1515 1516 1518 1520 1524 1527 1529 1530 1529 1530 1530 1530 1531 1531 1531 1531 1530 1530 1529 1529 1528 1528 1529 1529 1530
1465 1462 1454 1449 1448 1449 1451 1452 1453 1456 1456 1454 1450 1446 1443 1439 1434 1430 1433 1439 1443 1448 1448 1442 1444 1443 1440 1439 1438 1444 1450 1451 1452 1452 1455 1459 1461 1464 1467 1468 1471 1472 1473 1475 1477 1479 1480 1482 1484 1486 1489 1490 1492 1497 1501 1501 1503 1506 1508 1511 1513 1514 1516 1518 1521 1524 1526 1529 1530 1529 1530 1530 1531 1531 1531 1531 1531 1531 1530 1529 1529 1529 1529 1529 1530 1530
1463 1456 1449 1446 1448 1453 1456 1456 1458 1459 1458 1455 1452 1450 1445 1437 1435 1437 1439 1442 1442 1446 1446 1441 1442 1443 1440 1439 1440 1445 1448 1449 1452 1452 1453 1458 1460 1462 1465 1467 1469 1470 1472 1474 1476 1478 1479 1481 1483 1486 1489 1490 1493 1499 1500 1501 1505 1506 1507 1510 1512 1515 1517 1519 1522 1524 1526 1528 1529 1529 1529 1529 1530 1530 1530 1531 1531 1531 1530 1530 1530 1530 1529 1530 1531 1531
1451 1444 1442 1445 1449 1455 1458 1458 1459 1460 1458 1454 1451 1448 1442 1435 1434 1436 1440 1442 1442 1445 1445 1443 1447 1444 1440 1443 1444 1444 1446 1448 1450 1451 1453 1456 1460 1463 1464 1466 1468 1469 1471 1473 1474 1477 1479 1481 1483 1486 1490 1491 1494 1500 1501 1503 1506 1507 1509 1512 1514 1516 1518 1520 1523 1525 1526 1528 1528 1528 1528 1528 1529 1530 1531 1532 1532 1531 1531 1531 1531 1530 1530 1531 1531 1532
1445 1441 1444 1448 1451 1455 1457 1457 1457 1458 1456 1452 1449 1446 1440 1435 1434 1435 1441 1445 1449 1451 1444 1445 1456 1450 1439 1443 1445 1443 1447 1449 1449 1451 1453 1456 1459 1462 1464 1466 1467 1469 1470 1472 1474 1477 1479 1481 1484 1487 1490 1493 1496 1501 1504 1504 1507 1510 1511 1514 1515 1517 1519 1521 1523 1525 1527 1528 1528 1528 1528 1529 1530 1531 1532 1533 1532 1532 1532 1532 1532 1531 1531 1532 1532 1533
1443 1442 1446 1450 1452 1453 1455 1454 1452 1454 1455 1450 1443 1442 1441 1438 1436 1436 1440 1445 1450 1449 1439 1439 1454 1452 1441 1441 1441 1443 1447 1448 1450 1451 1452 1457 1460 1461 1464 1466 1467 1468 1470 1473 1475 1477 1480 1482 1484 1487 1490 1494 1498 1501 1503 1505 1508 1512 1513 1515 1517 1518 1520 1522 1524 1526 1527 1528 1528 1529 1529 1531 1532 1532 1533 1533 1533 1533 1532 1532 1532 1532 1532 1532 1533 1534
1442 1445 1448 1449 1452 1452 1453 1452 1447 1449 1454 1447 1435 1437 1441 1440 1440 1440 1440 1442 1442 1442 1439 1437 1442 1447 1447 1441 1436 1440 1447 1447 1449 1452 1453 1456 1460 1462 1464 1466 1468 1470 1471 1474 1476 1478 1481 1480 1479 1482 1486 1490 1494 1498 1502 1506 1510 1512 1514 1517 1519 1520 1522 1524 1526 1527 1528 1529 1529 1529 1530 1531 1532 1532 1532 1532 1533 1533 1533 1533 1533 1533 1533 1534 1534 1535
1441 1445 1448 1449 1452 1451 1448 1445 1442 1445 1448 1442 1434 1436 1438 1438 1439 1440 1440 1440 1438 1444 1449 1440 1435 1448 1453 1442 1434 1439 1444 1446 1448 1451 1453 1455 1460 1465 1465 1466 1468 1471 1473 1475 1478 1481 1481 1478 1477 1480 1486 1489 1493 1499 1503 1507 1510 1512 1515 1518 1520 1521 1523 1524 1525 1527 1528 1530 1530 1530 1531 1532 1532 1531 1532 1532 1533 1533 1533 1533 1534 1534 1535 1535 1535 1536
1439 1442 1443 1446 1449 1445 1441 1437 1436 1442 1443 1438 1436 1436 1435 1436 1436 1437 1439 1438 1441 1453 1454 1441 1435 1448 1453 1442 1438 1443 1444 1443 1447 1451 1453 1456 1464 1467 1465 1466 1467 1470 1474 1476 1478 1481 1480 1478 1479 1483 1487 1491 1495 1500 1504 1507 1509 1513 1516 1518 1519 1520 1521 1522 1524 1525 1527 1529 1530 1531 1532 1532 1532 1531 1532 1532 1532 1533 1533 1533 1534 1535 1535 1536 1536 1536
1438 1440 1441 1442 1442 1437 1435 1434 1435 1439 1438 1437 1439 1437 1437 1437 1435 1438 1437 1437 1452 1460 1450 1437 1432 1440 1449 1444 1441 1444 1442 1441 1446 1452 1454 1457 1465 1469 1467 1467 1468 1469 1474 1476 1478 1479 1478 1479 1481 1484 1487 1490 1494 1497 1501 1504 1506 1510 1514 1517 1518 1518 1520 1522 1524 1525 1526 1528 1530 1531 1532 1532 1532 1532 1532 1532 1532 1533 1534 1534 1535 1536 1536 1536 1536 1536
1439 1443 1443 1440 1438 1436 1437 1438 1439 1438 1436 1438 1440 1437 1441 1443 1439 1443 1440 1442 1462 1464 1444 1432 1430 1438 1450 1448 1439 1436 1437 1441 1446 1450 1454 1458 1462 1468 1469 1469 1468 1471 1474 1476 1478 1477 1478 1480 1481 1484 1487 1489 1493 1497 1500 1502 1504 1507 1511 1514 1515 1517 1519 1521 1523 1525 1526 1528 1529 1531 1532 1532 1532 1532 1532 1533 1533 1533 1534 1534 1535 1536 1537 1537 1537 1536
1441 1440 1439 1439 1438 1438 1441 1440 1439 1440 1438 1440 1440 1438 1447 1454 1454 1457 1454 1452 1460 1456 1438 1429 1432 1441 1446 1443 1440 1437 1439 1445 1446 1446 1451 1455 1458 1463 1467 1469 1471 1474 1476 1477 1477 1477 1478 1480 1482 1485 1487 1488 1492 1497 1499 1501 1504 1506 1508 1510 1513 1514 1516 1519 1521 1523 1525 1527 1528 1530 1532 1533 1533 1533 1533 1533 1533 1534 1534 1535 1535 1536 1537 1537 1537 1537
1444 1440 1436 1438 1437 1437 1440 1438 1438 1441 1439 1439 1438 1438 1448 1459 1470 1472 1461 1455 1455 1448 1436 1429 1435 1445 1443 1442 1444 1443 1445 1449 1448 1449 1452 1455 1459 1462 1465 1469 1475 1476 1477 1477 1477 1477 1479 1480 1482 1485 1486 1489 1492 1495 1498 1500 1503 1505 1506 1508 1510 1512 1514 1516 1519 1521 1523 1525 1527 1529 1531 1533 1533 1533 1533 1533 1534 1534 1534 1535 1535 1536 1537 1537 1537 1537
1446 1445 1436 1434 1435 1435 1437 1434 1431 1433 1434 1436 1432 1432 1440 1448 1461 1467 1458 1455 1455 1446 1437 1437 1444 1447 1446 1446 1444 1444 1448 1449 1449 1453 1457 1460 1463 1464 1465 1469 1473 1474 1475 1476 1475 1477 1479 1480 1482 1485 1487 1490 1492 1495 1497 1499 1502 1504 1505 1507 1509 1510 1512 1514 1516 1518 1521 1522 1525 1527 1530 1532 1533 1534 1534 1534 1534 1534 1534 1535 1536 1536 1537 1537 1538 1538
1439 1439 1428 1427 1429 1429 1434 1432 1427 1429 1432 1432 1427 1430 1437 1436 1439 1450 1453 1452 1455 1452 1444 1442 1445 1442 1444 1447 1443 1445 1449 1448 1450 1453 1455 1459 1460 1460 1464 1467 1470 1472 1472 1474 1475 1477 1479 1481 1483 1485 1488 1490 1491 1494 1495 1497 1499 1501 1503 1505 1507 1509 1510 1512 1513 1514 1516 1518 1522 1526 1529 1530 1532 1534 1535 1535 1534 1534 1534 1535 1536 1537 1537 1537 1538 1538
1439 1434 1421 1423 1427 1425 1429 1429 1426 1430 1432 1432 1432 1432 1429 1425 1427 1441 1450 1448 1455 1464 1452 1442 1445 1441 1444 1449 1445 1450 1455 1450 1451 1453 1453 1457 1457 1457 1461 1464 1468 1471 1472 1474 1476 1478 1479 1480 1483 1486 1488 1490 1491 1493 1495 1497 1499 1500 1501 1503 1506 1508 1510 1511 1512 1513 1514 1515 1519 1525 1527 1529 1532 1533 1534 1534 1534 1534 1534 1535 1536 1537 1537 1537 1538 1539
1438 1435 1422 1422 1429 1427 1426 1427 1425 1424 1427 1433 1438 1431 1422 1425 1429 1437 1449 1452 1457 1466 1452 1441 1447 1444 1444 1450 1448 1451 1457 1453 1452 1455 1456 1458 1458 1459 1460 1463 1468 1470 1472 1475 1476 1478 1480 1481 1484 1486 1488 1490 1491 1494 1495 1497 1499 1500 1501 1502 1505 1507 1509 1512 1513 1514 1515 1516 1519 1523 1526 1528 1531 1532 1533 1534 1533 1533 1533 1534 1535 1536 1538 1537 1538 1539
1436 1442 1432 1423 1427 1426 1424 1431 1431 1425 1424 1428 1429 1426 1426 1437 1440 1440 1451 1458 1460 1464 1455 1445 1445 1441 1439 1444 1444 1446 1451 1452 1455 1458 1458 1458 1458 1460 1461 1463 1468 1470 1473 1476 1476 1479 1481 1483 1485 1487 1489 1490 1491 1493 1495 1497 1498 1499 1501 1502 1504 1506 1508 1511 1513 1514 1515 1517 1519 1523 1525 1528 1530 1531 1533 1533 1533 1533 1533 1534 1535 1536 1538 1538 1539 1540
1435 1447 1443 1427 1422 1424 1426 1433 1436 1432 1427 1427 1428 1427 1426 1433 1438 1439 1443 1448 1451 1458 1459 1451 1447 1447 1444 1439 1440 1447 1452 1454 1458 1460 1459 1459 1460 1461 1462 1465 1468 1471 1475 1477 1478 1480 1482 1484 1485 1487 1488 1489 1490 1492 1494 1496 1497 1498 1500 1501 1502 1504 1507 1510 1512 1514 1516 1517 1519 1522 1524 1527 1529 1531 1533 1533 1533 1533 1534 1534 1535 1537 1538 1538 1539 1540
1433 1445 1449 1437 1426 1427 1430 1430 1431 1430 1426 1429 1434 1434 1431 1429 1432 1438 1441 1439 1439 1448 1454 1452 1453 1457 1453 1444 1441 1448 1455 1457 1458 1460 1461 1461 1462 1464 1466 1468 1470 1472 1475 1478 1480 1482 1484 1486 1487 1487 1489 1489 1490 1492 1494 1496 1496 1497 1499 1500 1501 1503 1506 1510 1512 1515 1516 1517 1519 1521 1523 1526 1528 1531 1531 1532 1532 1533 1534 1535 1535 1536 1537 1538 1539 1539
1434 1440 1447 1447 1438 1433 1430 1423 1421 1423 1421 1423 1428 1430 1432 1430 1431 1444 1450 1439 1433 1440 1444 1447 1458 1466 1459 1448 1445 1446 1452 1457 1458 1460 1462 1462 1465 1467 1470 1472 1473 1475 1477 1480 1482 1483 1485 1487 1488 1489 1490 1491 1493 1494 1495 1496 1496 1497 1498 1499 1501 1504 1506 1509 1512 1514 1516 1517 1519 1521 1523 1525 1528 1529 1530 1531 1532 1533 1534 1535 1535 1536 1537 1538 1539 1539
1436 1437 1442 1446 1438 1430 1427 1422 1420 1421 1421 1421 1422 1422 1425 1427 1430 1443 1452 1443 1436 1438 1437 1438 1454 1468 1461 1452 1451 1450 1450 1454 1458 1462 1462 1464 1468 1471 1473 1476 1477 1478 1480 1482 1484 1485 1486 1488 1489 1491 1492 1493 1495 1495 1496 1496 1497 1497 1498 1500 1503 1505 1507 1509 1511 1513 1515 1516 1518 1520 1522 1524 1526 1527 1529 1530 1532 1533 1534 1534 1535 1536 1537 1538 1539 1540
1439 1441 1444 1443 1436 1428 1426 1424 1423 1423 1424 1425 1424 1421 1423 1424 1426 1432 1438 1441 1442 1441 1440 1441 1453 1466 1463 1456 1454 1453 1452 1454 1459 1464 1465 1467 1471 1474 1476 1478 1480 1481 1482 1484 1485 1486 1487 1489 1491 1492 1493 1494 1495 1496 1497 1498 1498 1499 1499 1502 1504 1506 1508 1509 1511 1513 1514 1515 1517 1519 1521 1523 1524 1526 1527 1529 1531 1532 1533 1534 1535 1536 1538 1539 1540 1540
1444 1446 1446 1448 1451 1448 1437 1431 1430 1428 1428 1429 1426 1424 1424 1422 1424 1428 1430 1438 1445 1442 1439 1446 1459 1465 1463 1458 1456 1455 1456 1458 1461 1465 1467 1469 1473 1476 1478 1480 1481 1483 1484 1485 1487 1488 1489 1490 1492 1493 1494 1495 1496 1496 1497 1498 1500 1501 1502 1504 1505 1506 1508 1510 1511 1513 1514 1515 1517 1518 1519 1521 1523 1524 1526 1528 1530 1532 1533 1534 1535 1536 1538 1539 1540 1541
1446 1449 1449 1454 1463 1466 1457 1449 1444 1435 1430 1429 1427 1427 1428 1425 1427 1433 1435 1441 1450 1445 1437 1444 1460 1467 1462 1459 1459 1458 1459 1463 1465 1468 1470 1472 1475 1478 1480 1482 1483 1484 1486 1487 1489 1490 1491 1492 1493 1493 1495 1495 1496 1497 1498 1499 1501 1502 1503 1504 1505 1506 1508 1510 1511 1512 1514 1515 1516 1517 1518 1520 1521 1523 1524 1527 1528 1530 1532 1533 1535 1536 1537 1539 1540 1540
1445 1451 1455 1457 1462 1466 1466 1460 1449 1437 1433 1431 1428 1429 1432 1431 1431 1435 1438 1443 1446 1444 1442 1443 1453 1463 1465 1463 1463 1462 1463 1468 1470 1471 1474 1475 1477 1480 1482 1484 1485 1486 1488 1490 1491 1492 1493 1493 1494 1494 1495 1496 1497 1498 1499 1500 1501 1502 1503 1504 1505 1507 1508 1509 1510 1512 1513 1515 1515 1516 1517 1519 1520 1522 1523 1525 1527 1529 1530 1532 1534 1535 1536 1538 1539 1539
1446 1454 1458 1458 1459 1460 1460 1458 1452 1443 1436 1431 1429 1432 1434 1434 1436 1440 1445 1445 1442 1447 1456 1454 1452 1461 1465 1463 1465 1466 1468 1472 1474 1474 1476 1478 1479 1481 1484 1486 1487 1488 1490 1491 1493 1494 1494 1495 1496 1496 1496 1497 1497 1499 1500 1501 1501 1502 1503 1504 1505 1507 1508 1509 1510 1511 1512 1513 1514 1515 1517 1518 1519 1521 1522 1523 1525 1527 1529 1531 1533 1534 1536 1537 1538 1538
1444 1454 1458 1458 1459 1459 1457 1458 1458 1452 1442 1435 1436 1440 1439 1438 1440 1445 1447 1444 1442 1449 1460 1461 1461 1465 1467 1465 1469 1472 1474 1477 1478 1477 1479 1481 1482 1483 1485 1486 1488 1489 1491 1493 1495 1496 1497 1497 1498 1498 1498 1498 1499 1500 1501 1501 1502 1503 1503 1504 1505 1506 1507 1508 1510 1511 1512 1512 1514 1515 1516 1517 1518 1519 1521 1522 1524 1525 1527 1528 1530 1532 1534 1535 1536 1537
1446 1453 1457 1457 1460 1463 1462 1460 1459 1458 1453 1447 1445 1446 1445 1444 1444 1446 1447 1445 1447 1455 1459 1461 1465 1469 1471 1473 1477 1479 1481 1482 1481 1481 1482 1483 1485 1485 1486 1488 1490 1492 1494 1496 1498 1499 1500 1500 1500 1500 1500 1500 1501 1501 1502 1502 1503 1504 1505 1506 1506 1507 1508 1509 1510 1511 1512 1513 1514 1515 1516 1517 1517 1518 1519 1521 1523 1524 1525 1526 1527 1529 1531 1532 1534 1535
1449 1454 1455 1456 1461 1464 1465 1465 1464 1465 1464 1460 1457 1454 1451 1451 1451 1452 1454 1453 1455 1462 1464 1465 1470 1475 1478 1480 1482 1484 1484 1484 1484 1484 1485 1487 1488 1488 1489 1491 1493 1495 1497 1499 1501 1502 1503 1503 1503 1503 1503 1502 1503 1503 1503 1504 1504 1505 1506 1506 1507 1508 1509 1509 1511 1511 1512 1513 1514 1515 1516 1516 1517 1518 1518 1520 1521 1523 1524 1525 1526 1527 1528 1530 1532 1532
1448 1454 1455 1457 1462 1462 1462 1467 1469 1470 1472 1472 1469 1465 1462 1461 1460 1461 1462 1462 1463 1466 1466 1467 1473 1478 1481 1483 1485 1485 1486 1486 1487 1488 1489 1491 1491 1491 1492 1494 1496 1498 1499 1501 1503 1505 1506 1506 1506 1506 1506 1506 1506 1505 1505 1506 1506 1506 1507 1507 1508 1508 1509 1510 1511 1511 1512 1513 1514 1514 1515 1516 1517 1518 1518 1519 1520 1522 1522 1523 1524 1525 1526 1528 1530 1530
1446 1454 1456 1457 1462 1461 1458 1462 1467 1473 1481 1480 1474 1470 1469 1469 1468 1465 1464 1467 1468 1467 1466 1467 1471 1476 1480 1484 1486 1488 1489 1491 1493 1494 1494 1494 1495 1495 1496 1497 1499 1502 1503 1504 1506 1507 1508 1509 1509 1509 1509 1508 1508 1508 1508 1508 1508 1508 1508 1509 1509 1509 1510 1511 1511 1512 1513 1513 1514 1514 1515 1516 1517 1517 1518 1519 1520 1520 1521 1522 1522 1524 1525 1526 1527 1528
1450 1454 1454 1454 1460 1462 1458 1460 1466 1474 1478 1476 1471 1470 1470 1471 1470 1470 1471 1473 1473 1471 1468 1470 1472 1474 1478 1483 1488 1493 1496 1498 1499 1500 1499 1498 1499 1499 1499 1500 1503 1505 1506 1508 1509 1511 1511 1510 1510 1510 1511 1511 1510 1510 1510 1509 1509 1509 1510 1510 1510 1511 1511 1512 1513 1513 1514 1514 1515 1515 1515 1516 1516 1517 1517 1518 1519 1519 1520 1521 1522 1523 1524 1524 1525 1527
1454 1457 1455 1454 1458 1462 1463 1465 1471 1474 1471 1469 1470 1470 1469 1468 1470 1473 1475 1475 1475 1476 1476 1477 1479 1478 1480 1485 1491 1497 1501 1502 1503 1503 1503 1503 1504 1504 1504 1506 1508 1509 1511 1513 1513 1514 1513 1511 1510 1510 1512 1513 1513 1512 1512 1511 1511 1511 1511 1511 1511 1512 1512 1513 1513 1514 1514 1515 1516 1516 1517 1517 1517 1517 1518 1518 1518 1519 1519 1520 1521 1522 1523 1523 1524 1525
1449 1453 1454 1454 1456 1463 1467 1468 1471 1472 1469 1470 1471 1469 1467 1468 1469 1471 1476 1477 1476 1477 1481 1484 1486 1486 1487 1490 1494 1498 1501 1504 1505 1507 1509 1509 1509 1510 1510 1511 1513 1515 1516 1516 1515 1515 1514 1512 1510 1510 1511 1512 1512 1512 1512 1512 1512 1512 1512 1512 1513 1513 1513 1514 1514 1515 1515 1516 1516 1517 1517 1518 1518 1518 1518 1518 1519 1519 1519 1519 1520 1521 1522 1522 1523 1523
1445 1448 1451 1455 1459 1461 1463 1465 1468 1472 1472 1472 1472 1470 1469 1470 1468 1468 1475 1481 1479 1477 1482 1488 1490 1491 1493 1494 1496 1498 1500 1502 1505 1509 1512 1513 1512 1514 1514 1514 1515 1517 1517 1516 1516 1515 1515 1514 1513 1512 1513 1513 1513 1513 1513 1512 1513 1513 1513 1513 1514 1514 1514 1515 1515 1515 1516 1516 1517 1517 1517 1518 1519 1519 1519 1519 1519 1520 1520 1520 1520 1520 1520 1520 1521 1522
1445 1448 1452 1460 1461 1454 1453 1459 1463 1468 1472 1472 1473 1474 1474 1474 1473 1470 1475 1483 1482 1478 1482 1489 1490 1492 1495 1495 1497 1499 1498 1499 1504 1508 1511 1513 1513 1514 1516 1516 1517 1517 1517 1518 1518 1517 1517 1516 1515 1515 1516 1516 1516 1515 1516 1516 1515 1515 1516 1516 1516 1516 1516 1515 1515 1516 1516 1516 1517 1517 1517 1518 1519 1519 1520 1520 1520 1520 1520 1520 1520 1520 1520 1520 1520 1521
1447 1448 1452 1457 1457 1453 1455 1457 1458 1466 1474 1475 1476 1478 1476 1477 1477 1474 1475 1482 1486 1482 1483 1487 1489 1490 1493 1494 1496 1497 1494 1496 1503 1508 1511 1513 1514 1515 1516 1517 1518 1519 1519 1519 1520 1520 1519 1518 1518 1518 1519 1519 1518 1518 1519 1519 1519 1518 1517 1517 1517 1517 1517 1516 1516 1516 1517 1517 1517 1517 1518 1518 1519 1519 1520 1520 1520 1520 1519 1520 1520 1520 1519 1519 1520 1521
1452 1451 1453 1455 1454 1455 1457 1455 1458 1473 1481 1478 1478 1480 1479 1479 1480 1476 1475 1481 1487 1487 1486 1488 1489 1490 1492 1494 1495 1497 1497 1497 1502 1509 1512 1514 1516 1517 1518 1518 1519 1520 1520 1520 1520 1520 1520 1520 1520 1520 1520 1520 1520 1520 1521 1521 1521 1520 1519 1518 1519 1518 1517 1517 1517 1517 1517 1517 1518 1518 1518 1518 1519 1519 1519 1519 1519 1519 1519 1519 1519 1519 1519 1519 1520 1521
1455 1455 1456 1457 1455 1457 1462 1461 1466 1479 1484 1480 1480 1481 1479 1478 1478 1478 1481 1486 1489 1488 1488 1490 1492 1493 1495 1496 1497 1501 1504 1504 1507 1511 1514 1515 1516 1517 1517 1518 1519 1519 1520 1520 1520 1519 1520 1520 1520 1520 1520 1520 1520 1520 1520 1520 1520 1520 1520 1519 1519 1518 1518 1517 1517 1517 1517 1518 1518 1518 1518 1518 1518 1517 1517 1518 1518 1518 1518 1519 1519 1519 1519 1519 1520 1520
1458 1458 1456 1456 1456 1458 1464 1467 1471 1482 1488 1484 1482 1482 1480 1479 1480 1484 1488 1490 1489 1489 1489 1492 1494 1495 1497 1499 1501 1505 1508 1509 1511 1513 1514 1515 1516 1516 1517 1518 1518 1519 1519 1519 1519 1518 1518 1519 1520 1519 1520 1519 1519 1519 1519 1518 1518 1518 1518 1518 1518 1517 1517 1516 1516 1516 1516 1517 1517 1517 1517 1517 1516 1516 1516 1517 1517 1517 1517 1518 1518 1518 1518 1518 1518 1519
1464 1464 1458 1459 1462 1461 1461 1466 1474 1484 1490 1486 1483 1483 1482 1482 1485 1489 1490 1491 1492 1493 1494 1496 1498 1499 1500 1503 1505 1507 1509 1511 1512 1513 1514 1515 1516 1516 1517 1518 1518 1518 1518 1518 1518 1517 1517 1518 1519 1518 1518 1518 1518 1517 1517 1517 1517 1516 1516 1517 1517 1516 1515 1514 1514 1515 1515 1515 1515 1515 1515 1515 1515 1515 1515 1515 1515 1516 1516 1516 1516 1517 1516 1517 1517 1517
1468 1468 1463 1466 1472 1469 1468 1476 1483 1487 1487 1485 1485 1485 1485 1487 1490 1491 1491 1492 1494 1496 1498 1500 1502 1503 1505 1506 1507 1509 1511 1512 1513 1513 1514 1515 1515 1516 1517 1517 1517 1517 1517 1517 1517 1516 1516 1516 1516 1516 1516 1516 1516 1516 1515 1515 1515 1515 1514 1514 1514 1514 1514 1513 1513 1513 1513 1513 1513 1513 1514 1514 1514 1513 1513 1513 1513 1513 1514 1514 1514 1515 1515 1515 1515 1515
1472 1473 1470 1474 1478 1477 1479 1486 1489 1488 1487 1488 1488 1489 1490 1491 1492 1492 1493 1495 1496 1498 1500 1503 1505 1507 1508 1508 1509 1511 1512 1512 1513 1513 1514 1514 1515 1515 1515 1516 1516 1516 1515 1516 1515 1515 1514 1515 1515 1515 1515 1515 1514 1514 1514 1514 1513 1513 1512 1512 1512 1512 1512 1511 1511 1511 1510 1511 1511 1511 1512 1512 1512 1512 1511 1511 1511 1511 1511 1512 1512 1512 1512 1512 1512 1513
1475 1474 1474 1477 1480 1482 1486 1489 1490 1490 1492 1493 1493 1494 1495 1495 1496 1497 1498 1499 1500 1503 1504 1506 1508 1510 1510 1510 1511 1511 1512 1512 1512 1513 1513 1514 1514 1514 1514 1514 1515 1514 1514 1514 1514 1513 1513 1513 1513 1513 1513 1513 1513 1512 1512 1512 1512 1511 1511 1511 1511 1510 1510 1510 1509 1509 1509 1508 1509 1509 1509 1509 1509 1509 1509 1509 1508 1508 1508 1509 1509 1509 1509 1509 1509 1509
1476 1475 1476 1478 1480 1483 1488 1491 1491 1493 1495 1496 1496 1498 1499 1499 1500 1501 1502 1503 1505 1506 1507 1508 1510 1510 1510 1510 1511 1511 1511 1512 1512 1512 1513 1513 1513 1513 1514 1514 1514 1513 1513 1513 1513 1512 1512 1512 1512 1512 1511 1511 1510 1510 1509 1509 1509 1509 1509 1509 1509 1509 1508 1508 1508 1507 1507 1506 1506 1506 1506 1506 1506 1506 1506 1506 1506 1506 1505 1505 1506 1506 1505 1506 1506 1506
1477 1476 1476 1478 1479 1483 1488 1491 1493 1494 1495 1496 1497 1498 1500 1501 1503 1503 1504 1505 1507 1507 1508 1509 1510 1510 1510 1511 1511 1511 1512 1512 1512 1513 1513 1513 1513 1513 1513 1513 1513 1513 1513 1512 1512 1511 1511 1511 1511 1510 1510 1509 1509 1508 1508 1507 1507 1507 1507 1506 1506 1506 1506 1506 1505 1505 1504 1504 1504 1504 1504 1504 1503 1503 1502 1502 1502 1502 1502 1502 1502 1502 1502 1502 1503 1503
1478 1476 1476 1479 1483 1487 1490 1491 1493 1494 1495 1496 1497 1498 1500 1502 1503 1504 1505 1506 1507 1508 1509 1509 1509 1510 1511 1511 1511 1512 1512 1512 1513 1513 1513 1513 1513 1513 1513 1513 1512 1512 1511 1511 1511 1510 1510 1510 1509 1509 1508 1508 1507 1507 1506 1506 1506 1505 1505 1504 1504 1504 1503 1503 1503 1502 1501 1501 1501 1501 1501 1500 1500 1500 1500 1499 1499 1499 1498 1498 1499 1498 1498 1499 1499 1499
1479 1477 1477 1479 1483 1487 1488 1490 1492 1492 1493 1496 1499 1500 1501 1503 1503 1505 1506 1507 1508 1509 1510 1510 1510 1510 1510 1511 1512 1512 1513 1513 1513 1513 1513 1513 1513 1513 1512 1512 1511 1511 1510 1510 1510 1509 1509 1508 1508 1507 1506 1506 1505 1505 1504 1504 1503 1503 1502 1502 1502 1501 1501 1500 1500 1499 1499 1498 1498 1498 1498 1497 1497 1497 1496 1496 1496 1495 1495 1494 1494 1494 1494 1494 1494 1494
1484 1483 1482 1482 1484 1486 1488 1491 1493 1494 1495 1498 1501 1502 1503 1504 1505 1505 1507 1508 1509 1510 1510 1511 1511 1511 1511 1512 1512 1512 1513 1513 1513 1513 1513 1513 1512 1512 1512 1511 1511 1510 1510 1509 1509 1508 1508 1507 1506 1506 1505 1504 1504 1503 1503 1502 1501 1501 1500 1499 1498 1498 1497 1497 1497 1496 1496 1496 1496 1496 1495 1495 1494 1494 1493 1493 1492 1492 1491 1491 1490 1490 1490 1490 1490 1491